Regional Weather Roundup
Issued by NWS

Home | Current Version | Previous Version | Graphics & Text | Print | Product List | Glossary On
Versions: 1 2 3 4 5 6 7 8 9 10 11 12 13 14 15 16 17 18 19 20 21 22 23 24 25 26 27 28
000
ASUS45 KCYS 181710
RWRWY

WYOMING REGIONAL WEATHER ROUNDUP
NATIONAL WEATHER SERVICE CHEYENNE WY
1100 AM MDT WED OCT 18 2017

NOTE:  "FAIR" INDICATES FEW OR NO CLOUDS BELOW 12,000 FEET
WITH NO SIGNIFICANT WEATHER AND/OR OBSTRUCTIONS TO VISIBILITY.

WYZ001-181800-
YELLOWSTONE NATIONAL PARK

CITY           SKY/WX    TMP DP  RH WIND       PRES   REMARKS
LK YELLOWSTONE   N/A     47  18  31 W6        30.25R
W YELLOWSTONE  NOT AVBL

$$
WYZ002>013-054>058-071-098>099-181800-
NORTHERN WYOMING

CITY           SKY/WX    TMP DP  RH WIND       PRES   REMARKS
JACKSON        FAIR      50  22  33 CALM      30.25R
CODY           FAIR      64  14  14 W12G17    30.09F
GREYBULL       FAIR      55  26  32 CALM      30.06S
WORLAND        FAIR      56  27  32 CALM      30.07S
SHERIDAN       FAIR      55  30  38 E13       30.06F
BUFFALO        FAIR      52  23  32 SE13      30.11F
GILLETTE       FAIR      52  26  36 SE7       30.11F
HULETT         FAIR      52  19  28 NE3       30.12S
NEWCASTLE      FAIR      59  27  29 W5        30.11R

$$
WYZ014>020-022>026-101>103-181800-
CENTRAL WYOMING

CITY           SKY/WX    TMP DP  RH WIND       PRES   REMARKS
BIG PINEY      FAIR      49  15  25 VRB3      30.30S
PINEDALE       FAIR      50  18  27 CALM      30.30S
DUBOIS         FAIR      54  12  19 N10       30.21F
LANDER         FAIR      59  18  20 N3        30.14R
RIVERTON       FAIR      60  22  23 W6        30.14S
CASPER         FAIR      61  13  15 SW14      30.14S
DOUGLAS        FAIR      65  14  14 NW6       30.12S

$$
WYZ021-027>030-104>119-181800-
SOUTHERN WYOMING

CITY           SKY/WX    TMP DP  RH WIND       PRES   REMARKS
EVANSTON       FAIR      56  13  18 SW8       30.30S
KEMMERER       FAIR      54  12  19 W8        30.31S
FORT BRIDGER   FAIR      60  10  14 W10       30.32S
ROCK SPRINGS   FAIR      56   8  14 W15       30.27F
DIXON          FAIR      55  13  19 CALM      30.32S
RAWLINS        FAIR      58   8  13 W21G29    30.25R
SARATOGA       FAIR      63   9  12 W14G21    30.28R
LARAMIE        FAIR      62   8  12 VRB5      30.24R
CHEYENNE       FAIR      66   9  10 W20G29    30.19R
TORRINGTON     FAIR      67  11  11 VRB3      30.11R
PINE BLUFFS    FAIR      70  14  11 N20G25    30.16R

$$




USA.gov is the U.S. government's official web portal to all federal, state and local government web resources and services.